Location: Allaines
(49.9632°N, 2.9458°E)
Time: 05:06:12
(UTC+00:00)

X-37B - Pass Details

Date: 25 June 2021
Orbit: 383 x 392 km, 45.0° (Epoch: 01 July)

Event Time Altitude Azimuth Distance (km) Brightness Sun altitude
Rises 23:21:19 0° 264° (W) 2,257 4.5 -16.4°
Reaches altitude 10° 23:23:32 10° 252° (WSW) 1,403 3.3 -16.4°
Enters shadow 23:24:02 13° 247° (WSW) 1,225 2.9 -16.4°
